Zurück zum Katalog

QIANFAN-224

AktivKommunikationPO
NORAD 69853·PAYLOAD·🇨🇳 China

Gestartet Jul 5, 2026 von Wenchang Space Launch Site

Loading…

Nächste Überflüge (nächste 24 Stunden)

TLE

AktuellSource: Space-Track

Epoche: Sep 14, 2026, 21:28 UTC

1 69853U 26155F   26257.89472925  .00000011  00000-0 -22314-5 0  9998
2 69853  89.0063  54.2655 0035964  30.0523 330.2685 13.57098016  9978

Verfolge QIANFAN-224 in Echtzeit mit AllMySat

Download on the App Store